Hourly Data Report for September 27, 2017

All times are specified in Local Standard Time (LST). Add 1 hour to adjust for Daylight Saving Time where and when it is observed.

KOUCHIBOUGUAC CS
NEW BRUNSWICK

46°47'00.000" N
65°01'00.000" W
21.00 m
8102328
71670
AKC

Download Data

Hourly Data (September 2017)
Hourly Data Report for September 27, 2017
Temp Definition
°C
Dew Point Temp Definition
°C
Rel Hum Definition
%
Wind Dir Definition
10's deg

Wind Spd Definition
km/h
Visibility Definition
km
Stn Press Definition
kPa
Hmdx Definition


Wind Chill Definition


Weather Definition


TIME
00:00 13.8 9.9 78 7 7   101.65     LegendNANA
01:00 13.3 10.3 82 7 6   101.64     LegendNANA
02:00 12.8 10.6 87 11 4   101.60     LegendNANA
03:00 12.2 11.6 96 8 2   101.58     LegendNANA
04:00 12.3 11.9 97 29 3   101.54     LegendNANA
05:00 12.6 12.2 98 13 6   101.41     LegendNANA
06:00 12.8 12.3 97 11 2   101.40     LegendNANA
07:00 13.0 12.3 96 11 5   101.37     LegendNANA
08:00 13.1 12.3 95 11 6   101.30     LegendNANA
09:00 13.4 12.5 95 12 6   101.24     LegendNANA
10:00 14.1 13.7 97 15 5   101.16     LegendNANA
11:00 14.9 14.3 97 16 6   101.07     LegendNANA
12:00 15.2 14.6 96 16 5   100.96     LegendNANA
13:00 16.1 15.6 97 21 5   100.87     LegendNANA
14:00 16.1 15.5 96 33 2   100.80     LegendNANA
15:00 16.8 16.4 97 0 1   100.74     LegendNANA
16:00 17.0 16.6 98   0   100.63     LegendNANA
17:00 17.4 16.9 97 13 5   100.50     LegendNANA
18:00 16.9 16.5 98 11 1   100.43     LegendNANA
19:00 16.7 16.4 98 16 5   100.39     LegendNANA
20:00 18.5 18.0 97 20 6   100.28     LegendNANA
21:00 18.6 17.7 94 20 9   100.17     LegendNANA
22:00 18.5 17.4 93 20 11   100.11     LegendNANA
23:00 18.9 17.5 92 23 12   100.22     LegendNANA

Notes on Data Quality.

Legend

  • E = Estimated
  • M = Missing
  • NA = Not Available
  • ‡ = Partner data that is not subject to review by the National Climate Archives
Date modified: